EDT,Max TemperatureF,Mean TemperatureF,Min TemperatureF,Max Dew PointF,MeanDew PointF,Min DewpointF,Max Humidity, Mean Humidity, Min Humidity, Max Sea Level PressureIn, Mean Sea Level PressureIn, Min Sea Level PressureIn, Max VisibilityMiles, Mean VisibilityMiles, Min VisibilityMiles, Max Wind SpeedMPH, Mean Wind SpeedMPH, Max Gust SpeedMPH,PrecipitationIn, CloudCover, Events, WindDirDegrees
2013-3-1,42,39,35,30,26,23,76,63,50,29.87,29.79,29.70,10,10,9,18,11,22,T,7,Snow,312
2013-3-2,39,35,31,24,20,17,69,57,44,29.88,29.84,29.78,10,10,10,21,12,30,0.00,8,,322
2013-3-3,35,32,28,23,19,15,78,63,47,29.89,29.83,29.79,10,9,2,26,16,35,T,8,Snow,314
2013-3-4,38,33,27,19,17,14,63,54,44,30.03,29.96,29.90,10,10,10,25,16,35,0.00,5,,310
2013-3-5,44,35,26,30,22,16,85,67,49,30.08,30.01,29.89,10,10,10,16,7,20,0.00,5,,312
2013-3-6,43,38,33,32,30,25,89,73,57,30.02,29.84,29.77,10,7,1,23,11,33,0.21,8,Rain-Snow,51
2013-3-7,49,42,34,26,23,21,70,52,34,30.15,30.10,30.03,10,10,10,23,12,32,0.00,5,,343
2013-3-8,46,40,33,24,21,18,56,48,40,30.31,30.20,30.14,10,10,10,29,15,37,0.00,4,,340
2013-3-9,56,43,29,26,23,20,69,48,27,30.35,30.30,30.25,10,10,10,17,6,21,0.00,1,,306
2013-3-10,61,44,27,34,25,21,78,51,23,30.33,30.27,30.21,10,10,10,14,6,20,0.00,4,,137
2013-3-11,57,46,35,46,39,34,92,72,51,30.22,30.11,29.91,10,9,5,24,10,29,0.04,8,Rain,131
2013-3-12,54,47,40,52,45,27,96,76,55,29.95,29.80,29.74,10,6,2,25,14,31,0.87,8,Rain,257
2013-3-13,46,38,30,28,24,17,78,60,41,30.02,29.94,29.88,10,10,9,29,12,35,T,4,Rain-Snow,291
2013-3-14,42,37,31,19,15,12,59,46,32,30.07,30.03,29.99,10,10,10,30,21,39,0.00,4,,303
2013-3-15,53,39,24,34,22,9,70,53,35,30.06,29.91,29.75,10,10,10,23,9,33,0.00,5,,274
2013-3-16,45,39,32,31,29,22,92,70,48,29.96,29.81,29.74,10,4,1,13,5,17,0.22,8,Rain-Snow,44
2013-3-17,39,34,29,30,24,18,92,68,44,30.29,30.13,29.94,10,9,5,13,4,21,T,7,Snow,344
2013-3-18,34,31,27,31,26,16,100,77,53,30.34,30.15,29.91,10,5,0,18,7,23,0.54,8,Rain-Snow,97
2013-3-19,51,42,32,35,29,17,100,65,30,29.91,29.81,29.71,10,5,1,35,10,44,0.07,5,Rain,303
2013-3-20,46,40,33,21,18,16,56,44,31,29.95,29.88,29.78,10,10,10,26,13,35,0.00,4,,293
2013-3-21,36,32,28,19,13,8,63,49,35,29.84,29.80,29.75,10,10,10,23,12,30,0.00,5,,315
2013-3-22,40,34,28,24,19,16,69,55,40,29.98,29.89,29.82,10,10,6,23,14,30,T,6,Snow,295
2013-3-23,46,37,27,22,20,18,69,52,34,30.00,29.97,29.93,10,10,10,26,12,32,0.00,3,,312
2013-3-24,45,35,25,25,20,17,75,54,33,30.00,29.84,29.66,10,10,10,16,4,24,T,6,,12
2013-3-25,39,36,32,32,30,25,96,75,54,29.68,29.57,29.53,10,4,0,13,5,17,0.38,8,Fog-Rain-Snow,38
2013-3-26,52,43,33,36,30,23,89,61,32,29.96,29.82,29.68,10,10,8,23,10,28,0.01,6,Rain,301
2013-3-27,50,44,37,30,27,23,70,53,36,30.08,30.01,29.95,10,10,10,25,15,30,T,5,,302
2013-3-28,49,43,37,32,27,22,70,52,34,30.21,30.11,30.05,10,10,10,20,11,22,T,7,Rain,305
2013-3-29,55,43,31,31,28,23,75,54,32,30.23,30.19,30.12,10,10,10,21,8,26,0.00,6,,308
2013-3-30,57,43,28,31,26,20,92,58,24,30.22,30.16,30.10,10,10,7,12,3,16,0.00,1,,303
2013-3-31,52,42,32,45,38,25,96,78,59,30.11,29.87,29.72,10,6,1,13,5,20,0.10,7,Rain,134